Regional Weather Roundup
Issued by NWS Memphis, TN

Home | Current Version | Previous Version | Text Only | Print | Product List | Glossary On
Versions: 1 2 3 4 5 6 7 8 9 10 11 12 13 14 15 16 17 18 19 20 21 22 23 24 25 26 27 28 29 30 31 32 33 34 35 36 37 38 39 40 41 42 43 44 45 46 47 48 49 50
000
ASUS44 KMEG 301010
RWRMEG
MEMPHIS CWA HOURLY WEATHER ROUNDUP
NATIONAL WEATHER SERVICE MEMPHIS TN
500 AM CDT SAT AUG 30 2014

...WEST TENNESSEE...

CITY           SKY/WX    TMP DP  RH WIND       PRES   REMARKS
MEMPHIS INTL   CLOUDY    79  70  74 SW7       30.00R
NWS MEMPHIS      N/A     78 N/A N/A MISG        N/A
JACKSON        MOCLDY    74  66  76 S3        30.01S
LEXINGTON      PTCLDY    68  66  94 CALM      30.03R
SAVANNAH       CLEAR     72  68  88 SE3       30.04S
DYERSBURG      MOCLDY    75  63  64 SE3       30.00S
UNION CITY     PTCLDY    73  70  88 SE5       29.99S
PARIS          PTCLDY    72  63  73 CALM      30.02S
HUNTINGDON     MOCLDY    71  64  78 SE3       30.02R


...EASTERN ARKANSAS...

CITY           SKY/WX    TMP DP  RH WIND       PRES   REMARKS
JONESBORO      MOCLDY    73  72  96 CALM      29.98S
WEST MEMPHIS   CLOUDY    75  73  93 S7        29.98S
BATESVILLE     CLOUDY    72  70  94 S3        29.98S
NEWPORT        MOCLDY    73  72  97 S5        30.00R
WALNUT RIDGE   CLOUDY    73  70  88 S3        29.98R
BLYTHEVILLE    MOCLDY    74  73  97 SE3       29.99S
SEARCY         CLOUDY    73  73 100 CALM      29.99S
STUTTGART      CLOUDY    75  72  88 S8        30.00S
PINE BLUFF     LGT RAIN  75  72  90 S3        30.00R
MONTICELLO     LGT RAIN  76  72  87 S5        30.00R


...NORTH MISSISSIPPI...

CITY           SKY/WX    TMP DP  RH WIND       PRES   REMARKS
TUPELO         CLOUDY    76  68  76 S6        30.03R
OLIVE BRANCH   CLEAR     73  73 100 S6        30.01S
CLARKSDALE       N/A     77  75  94 CALM      30.00S
CORINTH        CLOUDY    73  68  83 S7        30.02S
GRENADA        CLOUDY    73  70  88 CALM      30.02S
GREENWOOD      CLOUDY    76  71  85 S6        30.01S
COLUMBUS       CLOUDY    76  69  79 S5        30.04S
STARKVILLE     PTSUNNY   73  70  88 CALM      30.04S
GOLDEN TRIANGL CLOUDY    75  68  78 S3        30.04F


...SOUTHEAST MISSOURI...

CITY           SKY/WX    TMP DP  RH WIND       PRES   REMARKS
WEST PLAINS    MOCLDY    72  68  87 SW6       30.00R
POPLAR BLUFF   CLOUDY    72  69  90 CALM      29.97S
CAPE GIRARDEAU CLOUDY    73  70  90 CALM      29.98S


...NORTHWEST ALABAMA...

CITY           SKY/WX    TMP DP  RH WIND       PRES   REMARKS
MUSCLE SHOALS  CLOUDY    73  66  78 CALM      30.06S


...MIDDLE TENNESSEE...

CITY           SKY/WX    TMP DP  RH WIND       PRES   REMARKS
NASHVILLE      MOCLDY    71  65  81 S3        30.05S
CLARKSVILLE    PTCLDY    72  66  81 SE3       30.02S
DICKSON        PTCLDY    72  63  73 S8        30.05R
COLUMBIA         N/A     70  70 100 CALM      30.05S
LEWISBURG      PTCLDY    67  63  87 CALM      30.06S


...WESTERN KENTUCKY...

CITY           SKY/WX    TMP DP  RH WIND       PRES   REMARKS
PADUCAH        CLOUDY    74  70  87 CALM      29.98F
FORT CAMPBELL  MOCLDY    71  67  87 CALM      30.02S


...CENTRAL ARKANSAS...

CITY           SKY/WX    TMP DP  RH WIND       PRES   REMARKS
LITTLE ROCK    CLOUDY    75  70  83 CALM      29.99R


SKY/WX REPORTED AS FAIR MEANS FEW OR NO CLOUDS BELOW
12 THOUSAND FEET.



USA.gov is the U.S. government's official web portal to all federal, state and local government web resources and services.